STARLINK-1632 (46170 NORAD) Tracking and Keplerian Element Data

This shows tracking and keplerian element data for the satellite.

Feedback or suggestion? Click here.




ElementValue
Catalog46170
NameSTARLINK-1632
Epoch Orbit179
Epoch Day338.66668981
Epoch Year2020
RAAN275.6854
Inclination52.9986
Eccentricity0.0002534
Argument of Perigee14.0408
Mean Anonmoly3.3455
Mean Motion15.62767729
Decay Rate1.387E-05
L11 46170U 20057BF 20338.66668981 .00001387 00000-0 20980-4 0 9990
L22 46170 52.9986 275.6854 0002534 14.0408 3.3455 15.62767729 1796

Live tracking and technical data element details for STARLINK-1632 (NORAD 46170). STARLINK-1632 can be tracked NOW for your location showing map with azimuth and elevation plus other details from your city location.

Track the satellite on the map from your city or location and see movement details for azimuth, elevation, latitude, longitude, range, height, and movement on the map or in text.







IsCatalogInMostPopularTable: catalog: 46170, numindb: 15
Update: records affected: 1



GetName: 46170 STARLINK-1632

Hit Count: updated at: Sat, 05 Dec 2020 05:14:27 GMT